Weather History for HEAR - October, 2012

Change the Weather History Date:

Tuesday, October 30, 2012

  Actual Average Record
Temperature  
Mean Temperature 70 °F -  
Max Temperature 83 °F 77 °F - ()
Min Temperature 56 °F 54 °F - ()
Cooling Degree Days 4    
Growing Degree Days 20 (Base 50)    
Moisture  
Dew Point 61 °F    
Average Humidity 76    
Maximum Humidity 100    
Minimum Humidity 39    
Precipitation  
Precipitation 0.00 in 0.01 in - ()
Sea Level Pressure  
Sea Level Pressure 29.89 in    
Wind  
Wind Speed 3 mph ()    
Max Wind Speed 7 mph    
Max Gust Speed -    
Visibility 5.7 miles    
Events      
T = Trace of Precipitation, MM = Missing Value Source: Averaged Metar Reports

Daily Weather History Graph

Daily Weather History Graph

Search for Another Location

Airport or City:

Trip Planner

Search our weather history database for the weather conditions in past years. The results will help you decide how hot, cold, wet, or windy it might be!

Date:

Astronomy

Oct. 30, 2012 Rise Set
Actual Time 5:58 AM EET 4:57 PM EET
Civil Twilight 5:33 AM EET 5:22 PM EET
Nautical Twilight 5:05 AM EET 5:51 PM EET
Astronomical Twilight 4:36 AM EET 6:19 PM EET
Moon 5:18 PM EET 6:22 AM EET
Length of Visible Light 11h 48m
Length of Day
10h 59m
Full, 100% of the Moon is Illuminated
Oct 30
Full
Nov 7
Last Quarter
Nov 14
New
Nov 20
First Quarter
Nov 28
Full

Hourly Weather History & Observations

Time (EET) Temp. Heat Index Dew Point Humidity Pressure Visibility Wind Dir Wind Speed Gust Speed Precip Events Conditions
12:00 AM 60.8 °F - 59.0 °F 94% 29.89 in - South 4.6 mph - N/A   Clear
1:00 AM 60.8 °F - 59.0 °F 94% 29.89 in - South 2.3 mph - N/A   Clear
2:00 AM 60 °F - 59 °F 94% 29.90 in 6 mi South 3.5 mph - -  
2:00 AM 59.0 °F - 59.0 °F 100% 29.89 in - South 3.5 mph - N/A   Clear
3:00 AM 59.0 °F - 57.2 °F 94% 29.89 in - South 4.6 mph - N/A   Clear
4:00 AM 59.0 °F - 57.2 °F 94% 29.89 in - South 4.6 mph - N/A   Clear
5:00 AM 57.2 °F - 57.2 °F 100% 29.86 in - South 4.6 mph - N/A   Clear
6:00 AM 57.2 °F - 55.4 °F 94% 29.89 in 3.7 mi South 4.6 mph - N/A   Unknown
7:00 AM 59.0 °F - 59.0 °F 100% 29.89 in 3.7 mi South 2.3 mph - N/A   Unknown
8:00 AM 70 °F - 65 °F 79% 29.91 in 6 mi SSE 6.9 mph - -  
8:00 AM 69.8 °F - 64.4 °F 83% 29.89 in - SSE 6.9 mph - N/A   Clear
9:00 AM 77.0 °F - 66.2 °F 69% 29.92 in - South 1.2 mph - N/A   Clear
10:00 AM 78.8 °F - 64.4 °F 61% 29.89 in - NW 2.3 mph - N/A   Clear
11:00 AM 82.4 °F 83.4 °F 62.6 °F 51% 29.89 in - North 3.5 mph - N/A   Clear
12:00 PM 82.4 °F 82.9 °F 60.8 °F 48% 29.89 in - NNW 3.5 mph - N/A   Clear
1:00 PM 82.4 °F 82.9 °F 60.8 °F 48% 29.86 in - NNW 4.6 mph - N/A   Clear
2:00 PM 83 °F - 62 °F 39% 29.86 in 6 mi NNE 5.8 mph - -  
2:00 PM 82.4 °F 83.4 °F 62.6 °F 51% 29.86 in - NNE 5.8 mph - N/A   Clear
3:00 PM 82.4 °F 83.4 °F 62.6 °F 51% 29.86 in - North 4.6 mph - N/A   Clear
4:00 PM 80.6 °F 81.8 °F 62.6 °F 54% 29.86 in - North 6.9 mph - N/A   Clear
5:00 PM 77.0 °F - 66.2 °F 69% 29.86 in 6.2 mi North 5.8 mph - N/A   Scattered Clouds
6:00 PM 73.4 °F - 64.4 °F 73% 29.89 in 6.2 mi North 3.5 mph - N/A   Scattered Clouds
7:00 PM 71.6 °F - 62.6 °F 73% 29.89 in 6.2 mi North 2.3 mph - N/A   Scattered Clouds
8:00 PM 68 °F - 61 °F 73% 29.92 in 6 mi Calm Calm - -   Partly Cloudy
8:00 PM 68.0 °F - 60.8 °F 78% 29.92 in 6.2 mi Calm Calm - N/A   Scattered Clouds
9:00 PM 66.2 °F - 60.8 °F 83% 29.92 in - Calm Calm - N/A   Clear
10:00 PM 64.4 °F - 60.8 °F 88% 29.92 in 6.2 mi South 2.3 mph - N/A   Scattered Clouds
11:00 PM 62.6 °F - 60.8 °F 94% 29.92 in - South 5.8 mph - N/A   Clear